Location: Anumalkud?ru
(16.4847°N, 80.6636°E)
Time: 15:35:44
(UTC+00:00)

Cosmos 2208 Rocket - Pass Details

Date: 11 April 2026
Orbit: 751 x 800 km, 74.0° (Epoch: 11 May)

Event Time Altitude Azimuth Distance (km) Brightness Sun altitude
Rises 13:34:15 0° 344° (NNW) 3,231 7.6 -10.8°
Reaches altitude 10° 13:36:39 10° 344° (NNW) 2,297 6.9 -11.3°
Maximum altitude 13:41:51 80° 258° (WSW) 772 4.1 -12.6°
Drops below altitude 10° 13:46:59 10° 171° (S) 2,268 6.2 -13.8°
Sets 13:49:20 0° 170° (S) 3,188 7.0 -14.3°
